IGO15AL VECC-VIDP

Flight info

Callsign IGO15AL
Flight time 1h 57m
Altitude 34000
Route TEPAL2C TEPAL R460 LKN R594 JAL JAL7N
Aircraft A21N/M-SDE2E3FGHIRWXY/LB1

Departure

Time 2026-05-06 11:30
Airport Netaji Subhash Chandra Bose International Airport (VECC)

Arrival

Time 2026-05-06 13:27
Airport Indira Gandhi International Airport (VIDP)
Time Latitude Longitude Altitude Speed Heading
2026-05-06 11:14 22.64045 88.43964 29 ft 0 kts 337°
2026-05-06 11:19 22.64028 88.43971 29 ft 4 kts 342°
2026-05-06 11:19 22.64001 88.43978 29 ft 4 kts 355°
2026-05-06 11:20 22.63969 88.43972 29 ft 5 kts 40°
2026-05-06 11:20 22.63961 88.43963 29 ft 1 kts 67°
2026-05-06 11:23 22.63964 88.43971 29 ft 3 kts 68°
2026-05-06 11:24 22.63977 88.44003 29 ft 7 kts 68°
2026-05-06 11:24 22.64000 88.44063 29 ft 10 kts 68°
2026-05-06 11:24 22.64016 88.44149 29 ft 13 kts 90°
2026-05-06 11:24 22.64008 88.44257 29 ft 16 kts 93°
2026-05-06 11:25 22.64021 88.44340 30 ft 8 kts 69°
2026-05-06 11:25 22.64055 88.44399 31 ft 9 kts 15°
2026-05-06 11:25 22.64126 88.44414 31 ft 12 kts
2026-05-06 11:25 22.64209 88.44446 31 ft 11 kts 50°
2026-05-06 11:26 22.64237 88.44513 32 ft 6 kts 68°
2026-05-06 11:26 22.64238 88.44515 32 ft 0 kts 68°
2026-05-06 11:26 22.64238 88.44514 32 ft 0 kts 68°
2026-05-06 11:28 22.64241 88.44521 32 ft 2 kts 67°
2026-05-06 11:28 22.64243 88.44552 32 ft 6 kts 88°
2026-05-06 11:28 22.64247 88.44611 34 ft 9 kts 84°
2026-05-06 11:29 22.64283 88.44643 34 ft 8 kts
2026-05-06 11:29 22.64304 88.44646 34 ft 0 kts
2026-05-06 11:29 22.64309 88.44646 34 ft 5 kts
2026-05-06 11:29 22.64523 88.44672 32 ft 66 kts
2026-05-06 11:30 22.65203 88.44750 32 ft 128 kts
2026-05-06 11:30 22.66249 88.44876 107 ft 166 kts
2026-05-06 11:30 22.67446 88.44970 486 ft 179 kts
2026-05-06 11:30 22.68746 88.45016 877 ft 195 kts 358°
2026-05-06 11:31 22.70175 88.45147 1252 ft 218 kts 11°
2026-05-06 11:31 22.71745 88.45453 1656 ft 244 kts
2026-05-06 11:31 22.73492 88.45722 2169 ft 266 kts
2026-05-06 11:31 22.75362 88.45983 2925 ft 273 kts
2026-05-06 11:32 22.77257 88.46236 3781 ft 276 kts
2026-05-06 11:32 22.79171 88.46419 4631 ft 276 kts 355°
2026-05-06 11:32 22.80988 88.45848 5435 ft 274 kts 328°
2026-05-06 11:32 22.82468 88.44545 6241 ft 275 kts 314°
2026-05-06 11:33 22.83814 88.43067 7012 ft 278 kts 313°
2026-05-06 11:33 22.85177 88.41568 7808 ft 280 kts 310°
2026-05-06 11:33 22.86281 88.39830 8607 ft 280 kts 296°
2026-05-06 11:33 22.87190 88.37945 9453 ft 282 kts 295°
2026-05-06 11:34 22.88096 88.36035 10068 ft 293 kts 295°
2026-05-06 11:34 22.89078 88.34009 10385 ft 314 kts 295°
2026-05-06 11:34 22.90132 88.31866 10789 ft 328 kts 296°
2026-05-06 11:34 22.91218 88.29662 11443 ft 334 kts 296°
2026-05-06 11:35 22.92317 88.27429 12159 ft 337 kts 295°
2026-05-06 11:35 22.93425 88.25175 12870 ft 341 kts 295°
2026-05-06 11:35 22.94536 88.22892 13567 ft 344 kts 295°
2026-05-06 11:35 22.95670 88.20585 14180 ft 347 kts 295°
2026-05-06 11:36 22.96813 88.18274 14779 ft 350 kts 295°
2026-05-06 11:36 22.97969 88.15933 15399 ft 353 kts 295°
2026-05-06 11:36 22.99126 88.13574 16002 ft 356 kts 295°
2026-05-06 11:36 23.00296 88.11197 16596 ft 359 kts 295°
2026-05-06 11:37 23.01475 88.08798 17196 ft 361 kts 295°
2026-05-06 11:37 23.02660 88.06378 17807 ft 363 kts 295°
2026-05-06 11:37 23.03846 88.03951 18333 ft 366 kts 295°
2026-05-06 11:37 23.05047 88.01500 18824 ft 368 kts 294°
2026-05-06 11:38 23.06248 87.99044 19321 ft 371 kts 294°
2026-05-06 11:38 23.07453 87.96555 19820 ft 373 kts 294°
2026-05-06 11:38 23.08668 87.94056 20311 ft 375 kts 294°
2026-05-06 11:38 23.09899 87.91543 20812 ft 378 kts 293°
2026-05-06 11:39 23.11124 87.89030 21293 ft 380 kts 293°
2026-05-06 11:39 23.12378 87.86477 21800 ft 382 kts 293°
2026-05-06 11:39 23.13634 87.83916 22293 ft 385 kts 292°
2026-05-06 11:39 23.14886 87.81349 22772 ft 387 kts 292°
2026-05-06 11:40 23.16153 87.78750 23245 ft 390 kts 292°
2026-05-06 11:40 23.17400 87.76132 23630 ft 392 kts 291°
2026-05-06 11:40 23.18649 87.73533 24002 ft 394 kts 292°
2026-05-06 11:40 23.19945 87.70896 24393 ft 396 kts 292°
2026-05-06 11:41 23.21235 87.68248 24781 ft 397 kts 292°
2026-05-06 11:41 23.22525 87.65591 25158 ft 399 kts 292°
2026-05-06 11:41 23.23823 87.62914 25513 ft 400 kts 292°
2026-05-06 11:41 23.25125 87.60233 25867 ft 402 kts 292°
2026-05-06 11:42 23.26436 87.57535 26207 ft 404 kts 292°
2026-05-06 11:42 23.27769 87.54787 26547 ft 406 kts 292°
2026-05-06 11:42 23.29088 87.52063 26864 ft 408 kts 291°
2026-05-06 11:42 23.30402 87.49366 27173 ft 410 kts 292°
2026-05-06 11:43 23.31745 87.46616 27488 ft 412 kts 292°
2026-05-06 11:43 23.33083 87.43863 27788 ft 413 kts 291°
2026-05-06 11:43 23.34429 87.41085 28089 ft 415 kts 291°
2026-05-06 11:44 23.37130 87.35497 28665 ft 419 kts 291°
2026-05-06 11:44 23.38486 87.32687 28959 ft 421 kts 291°
2026-05-06 11:44 23.39850 87.29849 29221 ft 423 kts 291°
2026-05-06 11:44 23.41215 87.27007 29493 ft 425 kts 292°
2026-05-06 11:45 23.42592 87.24155 29739 ft 427 kts 292°
2026-05-06 11:45 23.43980 87.21282 29973 ft 429 kts 292°
2026-05-06 11:45 23.45367 87.18406 30257 ft 429 kts 292°
2026-05-06 11:45 23.46751 87.15532 30578 ft 428 kts 292°
2026-05-06 11:46 23.48128 87.12668 30892 ft 426 kts 292°
2026-05-06 11:46 23.49502 87.09809 31205 ft 425 kts 292°
2026-05-06 11:46 23.50868 87.06964 31519 ft 424 kts 292°
2026-05-06 11:46 23.52235 87.04112 31829 ft 423 kts 292°
2026-05-06 11:47 23.53592 87.01278 32131 ft 422 kts 292°
2026-05-06 11:47 23.54941 86.98456 32431 ft 420 kts 292°
2026-05-06 11:47 23.56293 86.95636 32728 ft 420 kts 292°
2026-05-06 11:47 23.57644 86.92818 33021 ft 419 kts 292°
2026-05-06 11:48 23.58989 86.90002 33299 ft 418 kts 292°
2026-05-06 11:48 23.60333 86.87195 33570 ft 417 kts 292°
2026-05-06 11:48 23.61677 86.84386 33776 ft 417 kts 292°
2026-05-06 11:48 23.63015 86.81584 33815 ft 416 kts 292°
2026-05-06 11:49 23.65658 86.75990 33790 ft 415 kts 292°
2026-05-06 11:49 23.68311 86.70392 33792 ft 415 kts 292°
2026-05-06 11:50 23.70997 86.64805 33792 ft 415 kts 292°
2026-05-06 11:50 23.73667 86.59208 33807 ft 416 kts 292°
2026-05-06 11:51 23.76329 86.53618 33809 ft 412 kts 291°
2026-05-06 11:51 23.78955 86.48085 33811 ft 410 kts 291°
2026-05-06 11:52 23.81662 86.42584 33810 ft 414 kts 296°
2026-05-06 11:52 23.84938 86.37384 33822 ft 416 kts 298°
2026-05-06 11:53 23.88245 86.32187 33828 ft 416 kts 298°
2026-05-06 11:53 23.91531 86.27000 33828 ft 416 kts 297°
2026-05-06 11:54 23.94820 86.21787 33822 ft 417 kts 298°
2026-05-06 11:54 23.98117 86.16578 33835 ft 417 kts 298°
2026-05-06 11:55 24.01416 86.11343 33835 ft 418 kts 298°
2026-05-06 11:55 24.04709 86.06102 33845 ft 418 kts 297°
2026-05-06 11:56 24.07972 86.00853 33834 ft 417 kts 297°
2026-05-06 11:56 24.11277 85.95620 33825 ft 417 kts 297°
2026-05-06 11:57 24.14568 85.90391 33825 ft 417 kts 297°
2026-05-06 11:57 24.17842 85.85143 33821 ft 417 kts 297°
2026-05-06 11:58 24.20566 85.80787 33814 ft 417 kts 297°
2026-05-06 11:58 24.23856 85.75543 33820 ft 417 kts 297°
2026-05-06 11:59 24.27128 85.70288 33809 ft 417 kts 297°
2026-05-06 11:59 24.30400 85.65027 33812 ft 417 kts 297°
2026-05-06 12:00 24.33686 85.59788 33822 ft 418 kts 297°
2026-05-06 12:00 24.36968 85.54530 33801 ft 418 kts 297°
2026-05-06 12:01 24.40248 85.49257 33800 ft 418 kts 297°
2026-05-06 12:01 24.43520 85.43984 33800 ft 418 kts 297°
2026-05-06 12:02 24.46778 85.38701 33786 ft 417 kts 297°
2026-05-06 12:02 24.50042 85.33423 33783 ft 418 kts 297°
2026-05-06 12:03 24.53291 85.28154 33782 ft 417 kts 297°
2026-05-06 12:03 24.56563 85.22897 33762 ft 417 kts 297°
2026-05-06 12:04 24.59833 85.17636 33758 ft 417 kts 297°
2026-05-06 12:04 24.63083 85.12359 33762 ft 417 kts 296°
2026-05-06 12:05 24.66322 85.07070 33737 ft 418 kts 297°
2026-05-06 12:05 24.69594 85.01788 33737 ft 417 kts 297°
2026-05-06 12:06 24.72845 84.96515 33729 ft 417 kts 297°
2026-05-06 12:06 24.75434 84.90921 33730 ft 407 kts 285°
2026-05-06 12:07 24.77435 84.85115 33729 ft 406 kts 285°
2026-05-06 12:07 24.79448 84.79308 33730 ft 406 kts 285°
2026-05-06 12:08 24.81475 84.73500 33732 ft 406 kts 285°
2026-05-06 12:08 24.83500 84.67700 33736 ft 406 kts 285°
2026-05-06 12:09 24.85507 84.61945 33743 ft 406 kts 285°
2026-05-06 12:09 24.87524 84.56139 33741 ft 406 kts 285°
2026-05-06 12:10 24.89541 84.50338 33741 ft 406 kts 285°
2026-05-06 12:10 24.91559 84.44519 33750 ft 406 kts 285°
2026-05-06 12:11 24.93569 84.38699 33745 ft 407 kts 285°
2026-05-06 12:11 24.95582 84.32887 33737 ft 407 kts 285°
2026-05-06 12:12 24.97602 84.27037 33736 ft 407 kts 285°
2026-05-06 12:12 24.99601 84.21217 33735 ft 407 kts 285°
2026-05-06 12:13 25.01616 84.15371 33735 ft 407 kts 286°
2026-05-06 12:13 25.03621 84.09536 33735 ft 407 kts 285°
2026-05-06 12:14 25.05605 84.03685 33735 ft 407 kts 285°
2026-05-06 12:14 25.07605 83.97837 33734 ft 407 kts 285°
2026-05-06 12:15 25.09622 83.91996 33737 ft 407 kts 286°
2026-05-06 12:15 25.11630 83.86154 33733 ft 407 kts 286°
2026-05-06 12:16 25.13627 83.80307 33735 ft 407 kts 285°
2026-05-06 12:16 25.15621 83.74456 33726 ft 407 kts 286°
2026-05-06 12:17 25.17607 83.68608 33728 ft 407 kts 286°
2026-05-06 12:17 25.19597 83.62760 33728 ft 407 kts 285°
2026-05-06 12:18 25.21572 83.56942 33728 ft 407 kts 286°
2026-05-06 12:18 25.23554 83.51094 33734 ft 406 kts 286°
2026-05-06 12:19 25.25526 83.45260 33726 ft 405 kts 286°
2026-05-06 12:19 25.27506 83.39396 33727 ft 405 kts 286°
2026-05-06 12:20 25.29472 83.33558 33728 ft 405 kts 285°
2026-05-06 12:20 25.31434 83.27726 33729 ft 405 kts 286°
2026-05-06 12:21 25.33405 83.21875 33729 ft 405 kts 285°
2026-05-06 12:21 25.35350 83.16072 33723 ft 405 kts 285°
2026-05-06 12:22 25.37323 83.10196 33715 ft 404 kts 286°
2026-05-06 12:22 25.39276 83.04365 33709 ft 404 kts 285°
2026-05-06 12:23 25.41212 82.98569 33702 ft 404 kts 286°
2026-05-06 12:23 25.43158 82.92731 33699 ft 404 kts 285°
2026-05-06 12:24 25.45162 82.86911 33697 ft 407 kts 290°
2026-05-06 12:24 25.48294 82.81607 33722 ft 415 kts 301°
2026-05-06 12:25 25.51759 82.76555 33714 ft 415 kts 301°
2026-05-06 12:25 25.55223 82.71466 33714 ft 414 kts 301°
2026-05-06 12:26 25.58644 82.66393 33720 ft 414 kts 301°
2026-05-06 12:26 25.62094 82.61288 33718 ft 414 kts 301°
2026-05-06 12:27 25.65565 82.56144 33733 ft 414 kts 301°
2026-05-06 12:27 25.67264 82.53614 33896 ft 415 kts 301°
2026-05-06 12:27 25.68991 82.51048 34116 ft 414 kts 301°
2026-05-06 12:28 25.70710 82.48496 34338 ft 413 kts 301°
2026-05-06 12:28 25.72443 82.45921 34551 ft 412 kts 301°
2026-05-06 12:28 25.74157 82.43374 34740 ft 411 kts 301°
2026-05-06 12:28 25.75843 82.40862 34928 ft 411 kts 301°
2026-05-06 12:29 25.77554 82.38312 35066 ft 412 kts 301°
2026-05-06 12:29 25.79265 82.35760 35201 ft 413 kts 301°
2026-05-06 12:29 25.80978 82.33208 35356 ft 413 kts 301°
2026-05-06 12:29 25.82685 82.30651 35499 ft 413 kts 301°
2026-05-06 12:30 25.84398 82.28087 35633 ft 413 kts 301°
2026-05-06 12:30 25.86120 82.25521 35747 ft 414 kts 301°
2026-05-06 12:30 25.89562 82.20382 35754 ft 414 kts 301°
2026-05-06 12:31 25.93000 82.15236 35734 ft 415 kts 301°
2026-05-06 12:31 25.96433 82.10096 35734 ft 415 kts 301°
2026-05-06 12:32 25.99856 82.04931 35730 ft 414 kts 301°
2026-05-06 12:32 26.03271 81.99770 35731 ft 415 kts 301°
2026-05-06 12:33 26.06709 81.94609 35745 ft 415 kts 301°
2026-05-06 12:33 26.10157 81.89457 35737 ft 416 kts 301°
2026-05-06 12:34 26.13603 81.84283 35736 ft 416 kts 301°
2026-05-06 12:34 26.17037 81.79103 35737 ft 416 kts 301°
2026-05-06 12:35 26.20468 81.73920 35735 ft 416 kts 301°
2026-05-06 12:35 26.23897 81.68729 35735 ft 416 kts 301°
2026-05-06 12:36 26.27322 81.63550 35738 ft 415 kts 301°
2026-05-06 12:36 26.30748 81.58365 35738 ft 415 kts 301°
2026-05-06 12:37 26.34148 81.53183 35742 ft 414 kts 301°
2026-05-06 12:37 26.37569 81.47992 35736 ft 414 kts 301°
2026-05-06 12:38 26.40958 81.42812 35737 ft 415 kts 301°
2026-05-06 12:38 26.44388 81.37623 35730 ft 414 kts 301°
2026-05-06 12:39 26.47803 81.32426 35732 ft 415 kts 301°
2026-05-06 12:39 26.50654 81.28067 35733 ft 416 kts 301°
2026-05-06 12:40 26.54021 81.22907 35736 ft 412 kts 301°
2026-05-06 12:40 26.57396 81.17724 35736 ft 412 kts 301°
2026-05-06 12:41 26.60797 81.12507 35753 ft 413 kts 301°
2026-05-06 12:41 26.64184 81.07315 35734 ft 414 kts 302°
2026-05-06 12:42 26.67570 81.02129 35733 ft 414 kts 302°
2026-05-06 12:42 26.70945 80.96965 35729 ft 414 kts 302°
2026-05-06 12:43 26.74342 80.91767 35728 ft 414 kts 301°
2026-05-06 12:43 26.77919 80.86724 35727 ft 414 kts 306°
2026-05-06 12:44 26.81676 80.81813 35727 ft 414 kts 306°
2026-05-06 12:44 26.85430 80.76906 35728 ft 414 kts 306°
2026-05-06 12:45 26.89182 80.72003 35755 ft 414 kts 306°
2026-05-06 12:46 26.94791 80.64630 35732 ft 414 kts 306°
2026-05-06 12:46 26.98529 80.59711 35734 ft 414 kts 306°
2026-05-06 12:47 27.02279 80.54784 35724 ft 414 kts 306°
2026-05-06 12:47 27.06018 80.49871 35730 ft 413 kts 306°
2026-05-06 12:48 27.09743 80.44957 35739 ft 413 kts 306°
2026-05-06 12:48 27.13470 80.40046 35743 ft 412 kts 306°
2026-05-06 12:49 27.17181 80.35143 35749 ft 412 kts 306°
2026-05-06 12:49 27.20900 80.30224 35751 ft 413 kts 306°
2026-05-06 12:50 27.24615 80.25310 35747 ft 412 kts 306°
2026-05-06 12:50 27.28321 80.20390 35749 ft 412 kts 306°
2026-05-06 12:51 27.32013 80.15455 35749 ft 412 kts 306°
2026-05-06 12:51 27.35720 80.10541 35743 ft 412 kts 306°
2026-05-06 12:52 27.39421 80.05624 35747 ft 412 kts 306°
2026-05-06 12:52 27.43118 80.00702 35764 ft 412 kts 306°
2026-05-06 12:53 27.46818 79.95776 35750 ft 412 kts 306°
2026-05-06 12:53 27.50520 79.90850 35749 ft 412 kts 306°
2026-05-06 12:54 27.54195 79.85958 35484 ft 403 kts 307°
2026-05-06 12:54 27.55993 79.83559 34745 ft 406 kts 307°
2026-05-06 12:54 27.57809 79.81133 34197 ft 403 kts 307°
2026-05-06 12:54 27.59613 79.78718 33705 ft 399 kts 307°
2026-05-06 12:55 27.61393 79.76340 33162 ft 395 kts 308°
2026-05-06 12:55 27.63150 79.73983 32622 ft 391 kts 308°
2026-05-06 12:55 27.64894 79.71642 32082 ft 387 kts 308°
2026-05-06 12:55 27.66615 79.69328 31556 ft 383 kts 308°
2026-05-06 12:56 27.68325 79.67037 31050 ft 380 kts 309°
2026-05-06 12:56 27.69930 79.64705 30535 ft 376 kts 304°
2026-05-06 12:56 27.71387 79.62267 30021 ft 373 kts 303°
2026-05-06 12:56 27.72817 79.59833 29448 ft 371 kts 304°
2026-05-06 12:57 27.74235 79.57421 28846 ft 368 kts 304°
2026-05-06 12:57 27.75647 79.55019 28261 ft 366 kts 303°
2026-05-06 12:57 27.77047 79.52632 27670 ft 364 kts 303°
2026-05-06 12:57 27.78445 79.50259 27116 ft 362 kts 304°
2026-05-06 12:58 27.79834 79.47900 26569 ft 360 kts 303°
2026-05-06 12:58 27.81214 79.45550 26025 ft 358 kts 303°
2026-05-06 12:58 27.82589 79.43212 25496 ft 356 kts 303°
2026-05-06 12:58 27.83951 79.40892 25006 ft 353 kts 304°
2026-05-06 12:59 27.85286 79.38616 24557 ft 350 kts 304°
2026-05-06 12:59 27.86629 79.36328 24094 ft 349 kts 304°
2026-05-06 12:59 27.87980 79.34020 23669 ft 349 kts 304°
2026-05-06 12:59 27.89324 79.31729 23403 ft 348 kts 304°
2026-05-06 13:00 27.90657 79.29454 23131 ft 347 kts 304°
2026-05-06 13:00 27.91972 79.27209 22857 ft 346 kts 304°
2026-05-06 13:00 27.93293 79.24948 22595 ft 344 kts 304°
2026-05-06 13:00 27.94612 79.22691 22333 ft 343 kts 304°
2026-05-06 13:01 27.95921 79.20442 22071 ft 341 kts 303°
2026-05-06 13:01 27.97239 79.18179 21808 ft 340 kts 304°
2026-05-06 13:01 27.98541 79.15954 21558 ft 339 kts 304°
2026-05-06 13:01 27.99822 79.13761 21318 ft 337 kts 304°
2026-05-06 13:02 28.01131 79.11520 21058 ft 336 kts 304°
2026-05-06 13:02 28.02395 79.09352 20812 ft 335 kts 304°
2026-05-06 13:02 28.03679 79.07151 20567 ft 333 kts 304°
2026-05-06 13:02 28.04950 79.04969 20314 ft 330 kts 304°
2026-05-06 13:03 28.06205 79.02811 20066 ft 327 kts 304°
2026-05-06 13:03 28.07454 79.00662 19825 ft 326 kts 304°
2026-05-06 13:03 28.08698 78.98521 19589 ft 325 kts 304°
2026-05-06 13:03 28.09938 78.96386 19352 ft 324 kts 303°
2026-05-06 13:04 28.11052 78.94174 19118 ft 323 kts 297°
2026-05-06 13:04 28.12047 78.91896 18893 ft 322 kts 297°
2026-05-06 13:04 28.13029 78.89627 18662 ft 321 kts 297°
2026-05-06 13:04 28.14012 78.87357 18436 ft 320 kts 297°
2026-05-06 13:05 28.14991 78.85098 18200 ft 319 kts 297°
2026-05-06 13:05 28.15965 78.82851 17959 ft 318 kts 297°
2026-05-06 13:05 28.16940 78.80602 17696 ft 316 kts 297°
2026-05-06 13:05 28.17905 78.78373 17434 ft 315 kts 297°
2026-05-06 13:06 28.18871 78.76143 17183 ft 314 kts 297°
2026-05-06 13:06 28.19829 78.73932 16940 ft 313 kts 297°
2026-05-06 13:06 28.20791 78.71712 16684 ft 314 kts 297°
2026-05-06 13:06 28.21751 78.69492 16429 ft 313 kts 297°
2026-05-06 13:07 28.22696 78.67316 16182 ft 308 kts 297°
2026-05-06 13:07 28.23651 78.65123 15930 ft 306 kts 297°
2026-05-06 13:07 28.24588 78.62964 15679 ft 304 kts 297°
2026-05-06 13:07 28.25518 78.60814 15442 ft 303 kts 297°
2026-05-06 13:08 28.26444 78.58675 15198 ft 302 kts 297°
2026-05-06 13:08 28.27367 78.56537 14961 ft 300 kts 296°
2026-05-06 13:08 28.28272 78.54438 14726 ft 299 kts 297°
2026-05-06 13:08 28.29185 78.52324 14490 ft 298 kts 296°
2026-05-06 13:09 28.30090 78.50223 14261 ft 296 kts 296°
2026-05-06 13:09 28.30997 78.48121 14027 ft 295 kts 296°
2026-05-06 13:09 28.31894 78.46036 13796 ft 294 kts 296°
2026-05-06 13:09 28.32799 78.43924 13559 ft 293 kts 296°
2026-05-06 13:10 28.33686 78.41851 13299 ft 292 kts 295°
2026-05-06 13:10 28.34326 78.39698 13050 ft 292 kts 286°
2026-05-06 13:10 28.34789 78.37557 12809 ft 292 kts 285°
2026-05-06 13:10 28.35274 78.35253 12544 ft 292 kts 285°
2026-05-06 13:11 28.35750 78.33011 12291 ft 291 kts 285°
2026-05-06 13:11 28.36225 78.30788 12048 ft 291 kts 285°
2026-05-06 13:11 28.36704 78.28563 11798 ft 290 kts 285°
2026-05-06 13:11 28.37183 78.26339 11550 ft 290 kts 285°
2026-05-06 13:12 28.37661 78.24123 11296 ft 289 kts 285°
2026-05-06 13:12 28.38139 78.21908 11063 ft 289 kts 285°
2026-05-06 13:12 28.38614 78.19688 10826 ft 289 kts 285°
2026-05-06 13:12 28.39090 78.17476 10589 ft 289 kts 285°
2026-05-06 13:13 28.39567 78.15261 10428 ft 287 kts 285°
2026-05-06 13:13 28.40032 78.13096 10283 ft 278 kts 285°
2026-05-06 13:13 28.40488 78.10974 10163 ft 277 kts 285°
2026-05-06 13:13 28.40945 78.08847 10038 ft 277 kts 285°
2026-05-06 13:14 28.41399 78.06725 9921 ft 276 kts 285°
2026-05-06 13:14 28.41852 78.04609 9808 ft 276 kts 285°
2026-05-06 13:14 28.42306 78.02486 9697 ft 276 kts 285°
2026-05-06 13:14 28.42757 78.00371 9573 ft 276 kts 285°
2026-05-06 13:15 28.43210 77.98243 9444 ft 276 kts 284°
2026-05-06 13:15 28.43661 77.96122 9316 ft 276 kts 284°
2026-05-06 13:15 28.44113 77.93996 9182 ft 277 kts 284°
2026-05-06 13:15 28.44565 77.91870 9064 ft 278 kts 284°
2026-05-06 13:16 28.45020 77.89736 8932 ft 277 kts 284°
2026-05-06 13:16 28.45473 77.87618 8806 ft 276 kts 284°
2026-05-06 13:16 28.45927 77.85492 8685 ft 276 kts 284°
2026-05-06 13:16 28.46377 77.83382 8555 ft 276 kts 284°
2026-05-06 13:17 28.46827 77.81267 8434 ft 276 kts 284°
2026-05-06 13:17 28.47267 77.79147 8297 ft 276 kts 284°
2026-05-06 13:17 28.47720 77.77023 8163 ft 275 kts 284°
2026-05-06 13:17 28.48172 77.74909 7994 ft 275 kts 284°
2026-05-06 13:18 28.48619 77.72802 7751 ft 272 kts 284°
2026-05-06 13:18 28.49062 77.70718 7475 ft 271 kts 284°
2026-05-06 13:18 28.49501 77.68642 7197 ft 270 kts 284°
2026-05-06 13:18 28.49939 77.66572 6900 ft 270 kts 284°
2026-05-06 13:19 28.50376 77.64494 6596 ft 270 kts 284°
2026-05-06 13:19 28.50816 77.62413 6285 ft 271 kts 284°
2026-05-06 13:19 28.51251 77.60340 5986 ft 268 kts 284°
2026-05-06 13:19 28.51670 77.58281 5626 ft 266 kts 283°
2026-05-06 13:20 28.52068 77.56242 5312 ft 263 kts 284°
2026-05-06 13:20 28.52471 77.54226 4964 ft 261 kts 284°
2026-05-06 13:20 28.52881 77.52214 4617 ft 260 kts 284°
2026-05-06 13:20 28.53252 77.50414 4394 ft 253 kts 285°
2026-05-06 13:21 28.53536 77.49117 4191 ft 248 kts 285°
2026-05-06 13:21 28.53948 77.47248 3820 ft 246 kts 285°
2026-05-06 13:21 28.54359 77.45358 3431 ft 245 kts 285°
2026-05-06 13:21 28.54762 77.43476 3053 ft 245 kts 285°
2026-05-06 13:22 28.55163 77.41582 2695 ft 246 kts 285°
2026-05-06 13:22 28.55562 77.39689 2583 ft 246 kts 285°
2026-05-06 13:22 28.55961 77.37791 2567 ft 246 kts 285°
2026-05-06 13:22 28.56338 77.35868 2583 ft 247 kts 280°
2026-05-06 13:23 28.56471 77.33926 2588 ft 241 kts 274°
2026-05-06 13:23 28.56525 77.32184 2569 ft 226 kts 274°
2026-05-06 13:23 28.56567 77.30463 2559 ft 213 kts 274°
2026-05-06 13:23 28.56606 77.28782 2568 ft 212 kts 274°
2026-05-06 13:24 28.56641 77.27201 2620 ft 187 kts 274°
2026-05-06 13:24 28.56672 77.25807 2602 ft 167 kts 274°
2026-05-06 13:24 28.56702 77.24505 2585 ft 165 kts 275°
2026-05-06 13:24 28.56732 77.23205 2584 ft 164 kts 274°
2026-05-06 13:25 28.56760 77.21923 2498 ft 159 kts 275°
2026-05-06 13:25 28.56788 77.20687 2342 ft 154 kts 275°
2026-05-06 13:25 28.56815 77.19482 2142 ft 151 kts 275°
2026-05-06 13:25 28.56843 77.18279 1933 ft 153 kts 276°
2026-05-06 13:26 28.56870 77.17071 1731 ft 153 kts 274°
2026-05-06 13:26 28.56897 77.15866 1540 ft 153 kts 274°
2026-05-06 13:26 28.56925 77.14659 1336 ft 150 kts 274°
2026-05-06 13:26 28.56951 77.13468 1132 ft 151 kts 272°
2026-05-06 13:27 28.56978 77.12266 935 ft 153 kts 272°
2026-05-06 13:27 28.57007 77.11062 773 ft 149 kts 270°
2026-05-06 13:27 28.57028 77.10051 755 ft 75 kts 271°
2026-05-06 13:27 28.57028 77.09735 753 ft 31 kts 263°
2026-05-06 13:28 28.56957 77.09522 756 ft 26 kts 244°
2026-05-06 13:28 28.56896 77.09380 752 ft 21 kts 263°
2026-05-06 13:28 28.56893 77.09240 756 ft 16 kts 270°
2026-05-06 13:28 28.56890 77.09109 756 ft 17 kts 277°
2026-05-06 13:29 28.56894 77.09034 755 ft 3 kts 264°
2026-05-06 13:29 28.56882 77.09004 752 ft 5 kts 225°
2026-05-06 13:29 28.56839 77.08997 752 ft 8 kts 171°
2026-05-06 13:29 28.56779 77.09009 754 ft 10 kts 169°
2026-05-06 13:30 28.56705 77.09027 754 ft 12 kts 168°
2026-05-06 13:30 28.56614 77.09048 754 ft 15 kts 168°
2026-05-06 13:30 28.56507 77.09071 754 ft 17 kts 170°
2026-05-06 13:30 28.56412 77.09093 754 ft 13 kts 167°
2026-05-06 13:31 28.56322 77.09092 754 ft 11 kts 195°
2026-05-06 13:31 28.56238 77.09068 752 ft 13 kts 195°
2026-05-06 13:31 28.56146 77.09027 756 ft 15 kts 217°
2026-05-06 13:31 28.56138 77.08977 756 ft 3 kts 282°
2026-05-06 13:32 28.56142 77.08946 754 ft 5 kts 265°
2026-05-06 13:32 28.56115 77.08910 756 ft 7 kts 222°
2026-05-06 13:32 28.56096 77.08892 754 ft 3 kts 218°
2026-05-06 13:32 28.56082 77.08880 754 ft 2 kts 220°
2026-05-06 13:33 28.56078 77.08875 756 ft 1 kts 217°